Hourly Weather Rudnichnyy

Today, 19 April, Monday

Time Temperature Precipitation Wind Pressure Humidity
00:00 -4°C° 0 mm 0 mps 759 mmHg 50%
01:00 -4°C° 0 mm 0 mps 759 mmHg 50%
02:00 -4°C° 0 mm 0 mps 760 mmHg 52%
03:00 -3°C° 0 mm 1 mps 760 mmHg 53%
04:00 -4°C° 0 mm 1 mps 760 mmHg 55%
05:00 -3°C° 0 mm 1 mps 760 mmHg 56%
06:00 -4°C° 0 mm 2 mps 760 mmHg 57%
07:00 -4°C° 0 mm 2 mps 760 mmHg 58%
08:00 -2°C° 0 mm 2 mps 761 mmHg 52%
09:00 -1°C° 0 mm 2 mps 761 mmHg 46%
10:00 +1°C° 0 mm 2 mps 761 mmHg 39%
11:00 +3°C° 0 mm 1 mps 760 mmHg 37%
12:00 +4°C° 0 mm 1 mps 760 mmHg 34%
13:00 +4°C° 0 mm 1 mps 760 mmHg 31%
14:00 +5°C° 0 mm 1 mps 760 mmHg 31%
15:00 +5°C° 0 mm 1 mps 759 mmHg 31%
16:00 +5°C° 0 mm 1 mps 759 mmHg 30%
17:00 +4°C° 0 mm 1 mps 759 mmHg 36%
18:00 +3°C° 0 mm 1 mps 759 mmHg 41%
19:00 +1°C° 0 mm 1 mps 759 mmHg 47%
20:00 0°C° 0 mm 1 mps 759 mmHg 51%
21:00 0°C° 0 mm 1 mps 759 mmHg 56%
22:00 -1°C° 0 mm 1 mps 759 mmHg 60%
23:00 -1°C° 0 mm 1 mps 759 mmHg 60%

Tomorrow, 20 April, Tuesday

Time Temperature Precipitation Wind Pressure Humidity
00:00 -1°C° 0 mm 1 mps 759 mmHg 61%
01:00 -3°C° 0 mm 2 mps 758 mmHg 61%
02:00 -3°C° 0 mm 2 mps 758 mmHg 61%
03:00 -3°C° 0 mm 2 mps 758 mmHg 61%
04:00 -3°C° 0 mm 2 mps 758 mmHg 61%
05:00 -2°C° 0 mm 3 mps 758 mmHg 57%
06:00 -1°C° 0 mm 3 mps 758 mmHg 52%
07:00 -1°C° 0 mm 4 mps 757 mmHg 48%
08:00 +1°C° 0 mm 4 mps 757 mmHg 44%
09:00 +4°C° 0 mm 4 mps 757 mmHg 40%
10:00 +5°C° 0 mm 4 mps 756 mmHg 36%
11:00 +6°C° 0 mm 5 mps 756 mmHg 35%
12:00 +7°C° 0 mm 5 mps 756 mmHg 35%
13:00 +8°C° 0 mm 5 mps 755 mmHg 34%
14:00 +8°C° 0 mm 5 mps 755 mmHg 35%
15:00 +8°C° 0 mm 4 mps 755 mmHg 36%
16:00 +10°C° 0 mm 4 mps 755 mmHg 37%
17:00 +7°C° 0 mm 4 mps 755 mmHg 42%
18:00 +6°C° 0 mm 4 mps 755 mmHg 47%
19:00 +5°C° 0 mm 4 mps 755 mmHg 53%
20:00 +4°C° 0 mm 3 mps 755 mmHg 58%
21:00 +3°C° 0 mm 3 mps 755 mmHg 64%
22:00 +2°C° 0 mm 2 mps 756 mmHg 69%
23:00 +2°C° 0 mm 2 mps 756 mmHg 72%

Day after tomorrow, 21 April, Wednesday

Time Temperature Precipitation Wind Pressure Humidity
00:00 +2°C° 0 mm 1 mps 756 mmHg 74%
01:00 +2°C° 0 mm 1 mps 756 mmHg 77%
02:00 +2°C° 0 mm 1 mps 756 mmHg 78%
03:00 +1°C° 0 mm 1 mps 757 mmHg 79%
04:00 +1°C° 0 mm 1 mps 757 mmHg 79%
05:00 +2°C° 0 mm 1 mps 757 mmHg 74%
06:00 +3°C° 0 mm 0 mps 758 mmHg 68%
07:00 +4°C° 0 mm 0 mps 758 mmHg 62%
08:00 +6°C° 0 mm 0 mps 758 mmHg 57%
09:00 +9°C° 0 mm 1 mps 758 mmHg 52%
10:00 +10°C° 0 mm 1 mps 758 mmHg 47%
11:00 +11°C° 0 mm 1 mps 758 mmHg 45%
12:00 +12°C° 0 mm 1 mps 758 mmHg 43%
13:00 +13°C° 0 mm 1 mps 758 mmHg 40%
14:00 +13°C° 0 mm 1 mps 758 mmHg 40%
15:00 +13°C° 0 mm 1 mps 758 mmHg 40%
16:00 +13°C° 0 mm 2 mps 758 mmHg 40%
17:00 +12°C° 0 mm 2 mps 758 mmHg 46%
18:00 +10°C° 0 mm 2 mps 758 mmHg 51%
19:00 +8°C° 0 mm 2 mps 758 mmHg 57%
20:00 +7°C° 0 mm 2 mps 758 mmHg 62%
21:00 +6°C° 0 mm 2 mps 758 mmHg 66%
22:00 +5°C° 0 mm 2 mps 758 mmHg 71%
23:00 +5°C° 0 mm 2 mps 758 mmHg 73%

22 April, Thursday

Time Temperature Precipitation Wind Pressure Humidity
00:00 +4°C° 0 mm 2 mps 758 mmHg 76%
01:00 +4°C° 0 mm 2 mps 758 mmHg 79%
02:00 +3°C° 0 mm 2 mps 758 mmHg 82%
03:00 +3°C° 0 mm 2 mps 758 mmHg 85%
04:00 +2°C° 0 mm 2 mps 758 mmHg 87%
05:00 +3°C° 0 mm 2 mps 758 mmHg 82%
06:00 +4°C° 0 mm 2 mps 758 mmHg 76%
07:00 +4°C° 0 mm 3 mps 758 mmHg 71%
08:00 +7°C° 0 mm 3 mps 757 mmHg 63%
09:00 +8°C° 0 mm 4 mps 757 mmHg 54%
10:00 +11°C° 0 mm 4 mps 757 mmHg 46%
11:00 +11°C° 0 mm 4 mps 757 mmHg 44%
12:00 +12°C° 0 mm 5 mps 757 mmHg 42%
13:00 +13°C° 0 mm 5 mps 756 mmHg 39%
14:00 +13°C° 0 mm 5 mps 756 mmHg 39%
15:00 +13°C° 0 mm 4 mps 756 mmHg 38%
16:00 +13°C° 0 mm 4 mps 756 mmHg 37%
17:00 +12°C° 0 mm 4 mps 756 mmHg 40%
18:00 +11°C° 0 mm 3 mps 756 mmHg 44%
19:00 +9°C° 0 mm 3 mps 756 mmHg 47%
20:00 +8°C° 0 mm 3 mps 756 mmHg 52%
21:00 +7°C° 0 mm 3 mps 756 mmHg 56%
22:00 +5°C° 0 mm 3 mps 756 mmHg 61%
23:00 +5°C° 0 mm 3 mps 756 mmHg 64%

23 April, Friday

Time Temperature Precipitation Wind Pressure Humidity
00:00 +5°C° 0 mm 2 mps 756 mmHg 67%
01:00 +5°C° 0 mm 2 mps 756 mmHg 70%
02:00 +4°C° 0 mm 2 mps 756 mmHg 73%
03:00 +4°C° 0 mm 2 mps 756 mmHg 75%
04:00 +4°C° 0 mm 2 mps 756 mmHg 78%
05:00 +4°C° 0 mm 3 mps 756 mmHg 77%
06:00 +4°C° 0 mm 3 mps 756 mmHg 76%
07:00 +5°C° 0 mm 3 mps 756 mmHg 76%
08:00 +5°C° 0.1 mm 3 mps 756 mmHg 78%
09:00 +7°C° 0.1 mm 3 mps 756 mmHg 80%
10:00 +7°C° 0.1 mm 3 mps 756 mmHg 82%
11:00 +5°C° 0.5 mm 3 mps 756 mmHg 85%
12:00 +5°C° 0.5 mm 3 mps 756 mmHg 88%
13:00 +4°C° 0.5 mm 3 mps 756 mmHg 91%
14:00 +4°C° 0.3 mm 3 mps 756 mmHg 92%
15:00 +4°C° 0.3 mm 3 mps 757 mmHg 92%
16:00 +4°C° 0.3 mm 3 mps 757 mmHg 93%
17:00 +4°C° 0 mm 3 mps 757 mmHg 93%
18:00 +4°C° 0 mm 2 mps 756 mmHg 93%
19:00 +4°C° 0 mm 2 mps 756 mmHg 94%
20:00 +4°C° 0 mm 2 mps 756 mmHg 94%
21:00 +4°C° 0 mm 2 mps 756 mmHg 95%
22:00 +4°C° 0 mm 2 mps 756 mmHg 96%
23:00 +5°C° 0 mm 1 mps 756 mmHg 95%

24 April, Saturday

Time Temperature Precipitation Wind Pressure Humidity
00:00 +5°C° 0 mm 1 mps 756 mmHg 95%
01:00 +5°C° 0 mm 1 mps 756 mmHg 94%
02:00 +5°C° 0 mm 1 mps 755 mmHg 94%
03:00 +3°C° 0 mm 0 mps 755 mmHg 93%
04:00 +3°C° 0 mm 0 mps 755 mmHg 92%
05:00 +4°C° 0 mm 0 mps 755 mmHg 89%
06:00 +5°C° 0 mm 0 mps 755 mmHg 86%
07:00 +5°C° 0 mm 0 mps 755 mmHg 83%
08:00 +6°C° 0 mm 0 mps 755 mmHg 81%
09:00 +8°C° 0 mm 1 mps 754 mmHg 80%
10:00 +8°C° 0 mm 1 mps 754 mmHg 78%
11:00 +8°C° 0.4 mm 1 mps 754 mmHg 83%
12:00 +7°C° 0.4 mm 1 mps 754 mmHg 88%
13:00 +6°C° 0.4 mm 2 mps 754 mmHg 94%
14:00 +6°C° 0.3 mm 2 mps 753 mmHg 95%
15:00 +7°C° 0.3 mm 1 mps 753 mmHg 95%
16:00 +7°C° 0.3 mm 1 mps 753 mmHg 96%
17:00 +7°C° 0.3 mm 1 mps 753 mmHg 95%
18:00 +7°C° 0.3 mm 1 mps 753 mmHg 94%
19:00 +7°C° 0.3 mm 1 mps 753 mmHg 93%
20:00 +7°C° 0.2 mm 1 mps 753 mmHg 93%
21:00 +7°C° 0.2 mm 1 mps 752 mmHg 94%
22:00 +6°C° 0.2 mm 1 mps 752 mmHg 94%
23:00 +5°C° 0.1 mm 2 mps 752 mmHg 93%
Show more